Port de Québec

Opérations

Carcy img 9181

Dernière mise à jour le : dimanche 23 septembre 2018 12:43

Navires au Port

Poste Nom du navire C-1836 H.P.D Nat. L.H.T. J.B.E Agent Orig. Dest. C/D Remarques
14 CAP TOURMENTE 57919 CA 14.33 3 PECA QBC QBC Attente
17 OCEAN COTE-NORD 58058 CA 22.89 79 GROCE ICD ICD Attente
17 NT 1524 58180 CA 76.23 1 GROCE TRV QBC Attente
17 JERRY G 57832 CA 27.95 202 REMQU QBC ACF Attente
17 OMNI ATLAS 57835 CA 40.6 479 GROCE QBC ACF Attente
17 OCEAN UANNAQ 58148 CA 9.6 1 GROCE ICD ACF Attente
17 OCEAN M.I.L. 232 57850 CA 31.7 244 GROCE QBC ACF Attente
19 NORDIK EXPRESS 54716 CA 67.04 1 DESG RKI QBC Attente
20 OCEAN CLOVIS T 58502 CA 30.65 381 GROCE TRV ACF EN SERVICE
20 OCEAN ECHO 2 58576 CA 33.53 438 REMQU MTL ACF Services portuaires
20 OCEAN HENRY BAIN 58221 CA 30.8 402 GROCE MTL ACF EN SERVICE
20 OCEAN K. RUSBY 58558 CA 30.8 402 GROCE ICD ACF Attente
20 OCEAN CHARLIE 58428 CA 37.55 447 TRR ICD ACF Attente
20 OCEAN CAPE CROW 57947 CA 11.55 14 OCEA1 QBC ACF Attente
20 OCEAN ARCTIQUE 58080 CA 33.5 512 GROCE QBC SEP Services portuaires
20 LOIS M 58427 CA 35.96 453 OCEA1 ICD ACF Attente
20 KIM R.D 58529 CA 14.87 30 STMA CDL RKI Attente
20 DOVER LIGHT 57863 CA 38.8 695 COPIM QBC QBC Attente
20 BROCHU 57833 CA 30.99 390 GROCE QBC ACF Attente
20 AVANTAGE 57891 CA 31.63 367 GROCE ICD ACF Services portuaires
20 OCEAN SERGE GENOIS 58263 CA 22.91 20 OCEA1 MTL ACF Attente
20 PUGWASH 58577 CA 72.75 5 OCEAN MTL ACF Attente
20 ORLEANS 57873 CA 62.91 768 COPIM QBC ACF Attente
22 ZUIDERDAM 58606 2018-09-24 16:00 NL 285.42 82 RG SGY CHN Passagers
26 ETHAN 55751 TZ 108.26 4 DDINH QBC QBC Attente
27 CARILLONS 57861 CA 19.81 90 BEPR MTL ACF Attente
27 TORONTO 401 57862 CA 91.44 3 BEPR HAM ACF Attente
29 LAC ST-FRANCOIS 57879 CA 59.43 682 GROCE QBC ACF Attente
30 VEENDAM 58609 2018-09-23 16:30 NL 219.21 57 RG MTL CHN Croisière
31 ECRC-SIMEC 300 57864 2018-09-24 07:00 CA 58.66 499 COPIM QBC QBC Attente
31 ARMAND IMBEAU II 55448 2018-09-27 07:00 CA 92.0 2 ST LOZ QBC Attente
51 TIANJIN VENTURE 58587 2018-09-24 01:00 HK 189.89 32 LSL SEP LES Vrac solide
52 STEN MOSTER 58570 2018-09-25 21:00 GI 144.1 11 MTL MTL SRG Services portuaires
71 VIDAR VIKING 58490 NO 83.7 3 ROREF SW ACF Attente
74 BALDER VIKING 58488 NO 83.7 3 ROREF SW ACF Attente
74 TOR VIKING 58489 NO 83.7 3 ROREF SW ACF Attente
86 BERYL 58603 2018-09-24 08:30 MH 183.0 29 OT MTL PMB C Vrac liquide
87 WISDOM VENTURE 58602 2018-09-23 22:00 HK 237.0 60 OT CC LES D Pétrole brut
101 FUNDY PARADISE 48628 CA 97.85 3 MARIS TRV QBC Attente
102 TASING SWAN 58608 2018-09-24 08:30 DK 129.75 7 PETRO RKI SRG Services portuaires
103 DAMIA DESGAGNES 58610 2018-09-25 14:00 CA 135.0 11 PETRO TCY SRG Services portuaires
105 BAIE ST PAUL 58600 2018-09-23 19:30 CA 225.5 24 CSL SOO TOR C Vrac solide

Dernière mise à jour le : dimanche 23 septembre 2018 12:43

Navires attendus

Poste Nom du navire Réserv. H.P.A. Nat. L.H.T. J.B.E Agent Orig. Dest. C/D Remarques
18 ALGOMA EQUINOX 72036 2018-09-23 20:00 CA 225.55 23 ALGOM TUN D Vrac solide
87 LAURENTIA DESGAGNES 71990 2018-09-23 23:30 CA 228.6 42 PETRO MTL MTL D Pétrole brut
53 CSL LAURENTIEN 72034 2018-09-24 01:00 CA 225.477 24 CSL THM D Divers
105 BRANT 71963 2018-09-24 02:00 CY 185.0 19 LSL COS TOR D Vrac solide
50 FEDERAL MARGAREE 71971 2018-09-24 05:00 LR 185.0 18 RG SOR C Vrac solide
205 SCF PROGRESS 72049 2018-09-24 05:30 LR 228.5 42 RG MTL SRG Services portuaires
28 ECRC-SIMEC 300 72030 2018-09-24 07:30 CA 58.66 499 COPIM QBC Attente
21 INSIGNIA 67535 2018-09-24 08:00 MH 181.0 30 MCKE MTL SGY Croisière
86 TASING SWAN 71967 2018-09-24 09:30 DK 129.75 7 PETRO 303 RKI C Vrac liquide
50 BUCCOO REEF 71949 2018-09-24 17:00 JP 175.0 21 LSL LSS WIG D Vrac liquide
105 BLUEBILL 71962 2018-09-25 05:00 CY 199.9 22 LSL PRG TOR D Vrac solide
87 DAMIA DESGAGNES 71956 2018-09-25 15:00 CA 135.0 11 PETRO QBC SIA D Divers
86 STEN MOSTER 72042 2018-09-25 22:00 GI 144.1 11 MTL QBC C Vrac liquide
28 CINNAMON 72013 2018-09-25 22:22 CY 186.44 18 LSL TUN C Vrac solide
22 DISNEY MAGIC 67733 2018-09-26 07:30 BS 294.06 83 MCKE BCO SGY Croisière
87 ESPADA DESGAGNES 72052 2018-09-26 09:30 CA 228.6 42 PETRO MTL MTL D Pétrole brut
53 JOHN D LEITCH 71898 2018-09-26 11:11 CA 222.51 22 ALGOM QBC D Divers
28 SBI PEGASUS 72017 2018-09-26 22:22 MH 199.9 36 NATRA GIB SMA C Vrac solide
52 JOHN D LEITCH 71899 2018-09-26 22:22 CA 222.51 22 ALGOM QBC ACF C Vrac solide
52 TIBERBORG 72024 2018-09-27 00:00 SE 172.28 14 LSL C Vrac solide
30 SEVEN SEAS NAVIGATOR 67820 2018-09-27 08:00 BS 172.0 28 MCKE SGY MTL Croisière
102 ARMAND IMBEAU II 72035 2018-09-27 08:00 CA 92.0 2 ST QBC QBC Services portuaires
87 NS CHALLENGER 71977 2018-09-27 10:00 LR 244.0 57 OT D Pétrole brut
107 ALOUETTE SPIRIT 71836 2018-09-27 11:11 CA 129.0 10 EVAN TOL D Vrac solide
107 WILF SEYMOUR 71835 2018-09-27 11:11 CA 36.58 442 EVAN TOL Services portuaires
50 SAKHARA LOTUS 71930 2018-09-27 21:00 PA 170.0 19 LSL LSS WIL D Vrac liquide
28 FEDERAL MAYUMI 71945 2018-09-27 22:00 MH 199.98 20 RG DUL C Vrac solide
51 LIA 72022 2018-09-28 05:00 LR 228.6 42 MTL D Vrac liquide
21 ROTTERDAM 65350 2018-09-28 07:00 NL 237.95 61 RG CHN MTL Croisière
86 LAURENTIA DESGAGNES 72028 2018-09-28 10:30 CA 228.6 42 PETRO MTL MTL C Vrac liquide
53 CIELO D'' ITALIA 71891 2018-09-28 21:45 PA 245.0 63 LSL D Vrac solide
87 SCF PROGRESS 72014 2018-09-29 00:01 LR 228.5 42 RG 205 ACF D Divers
30 SEVEN SEAS NAVIGATOR 67821 2018-09-29 08:00 BS 172.0 28 MCKE MTL SGY Croisière
21 SEABOURN QUEST 68405 2018-09-29 10:00 BS 198.19 32 RG IDL TRV Croisière
52 STELLA NAOMIE 72047 2018-09-29 11:00 SG 291.985 94 C Divers
22 QUEEN MARY 2 66384 2018-09-29 12:00 GB 345.03 149 RG SEP SGY Croisière
18 ALGOMA HARVESTER 72037 2018-09-29 13:00 CA 225.55 23 D Vrac solide
21 ROTTERDAM 65351 2018-09-30 07:00 NL 237.95 61 RG MTL CHN Croisière
30 CELEBRITY SUMMIT 67241 2018-09-30 10:00 MT 294.0 90 RG BHR SGY Croisière
17 FULMAR 72011 2018-09-30 11:11 FR 39.79 550 MTL NFL QBC Services portuaires
19 GRANDE MARINER 69222 2018-09-30 12:00 US 56.64 829 ACL Croisière
28 STAR MARKELLA 72025 2018-09-30 22:22 MH 228.99 43 LSL TRV Vrac solide
50 FEDERAL BARENTS 72044 2018-09-30 22:22 MH 199.98 20 RG Vrac solide
51 LEOPARD SEA 72051 2018-10-01 08:00 SG 183.0 29 RG D Vrac liquide
53 ARAGONA 72016 2018-10-02 00:00 LR 199.99 35 LSL D Sel
21 SEABOURN QUEST 67694 2018-10-02 08:00 BS 198.19 32 RG MTL SGY Croisière
22 AIDADIVA 68037 2018-10-02 08:00 IT 251.89 69 MCKE HLX MTL Croisière
30 AURORA-ZCDW9 66656 2018-10-02 14:00 BM 270.0 76 RG HLX SYD Croisière
87 SEARANGER VREG3 72043 2018-10-03 17:00 HK 243.0 60 OT D Pétrole brut
27 A ETRE CONFIRME 71334 2018-10-05 00:00 CA 0.0 1 MARIO D En attente
53 FRONTIER LODESTAR 71934 2018-10-05 00:00 PA 291.98 92 LSL BR ACF D Vrac solide
18 ALGOMA EQUINOX 72038 2018-10-07 06:30 CA 225.55 23 ALGOM D Vrac solide
18 ALGOMA STRONGFIELD 72039 2018-10-07 17:00 CA 225.55 24 ALGOM D Vrac solide
29 CSL ST LAURENT 72045 2018-10-14 00:00 CA 225.5 22 CSL D
27 ARMAND IMBEAU II 71336 2018-10-14 11:11 CA 92.0 2 ST QBC QBC Attente
50 CHEM NORMA 71965 2018-10-15 00:00 MH 144.8 11 D Divers
102 A ETRE CONFIRME 72019 2018-10-15 11:11 CA 0.0 1 MARIO ACF ACF C Vrac liquide
18 ALGOMA HARVESTER 72040 2018-10-15 23:30 CA 225.55 23 D Vrac solide
29 CSL NIAGARA 72046 2018-10-16 00:00 CA 225.5 23 CSL D
18 ALGOMA HARVESTER 72041 2018-10-24 05:00 CA 225.55 23 D Vrac solide
30 ARMAND IMBEAU II 71335 2018-10-28 11:11 CA 92.0 2 ST QBC QBC Attente
14 TRANS ST LAURENT 72021 2019-01-07 00:00 CA 76.08 2 TRLSS Hivernage
999 BELLA DESGAGNES 72020 2019-03-05 00:00 CA 97.1 6 DESG Hivernage

Dernières données reçues:
2018/09/23 à 12:09

Conditions climatiques
Caméra Web Heure locale

Québec

Marée

Descendante

Prochaine marée
Basse

14:09

Haute

18:57

Température
dimanche 23 septembre

Température actuelle

12C

Journée partiellement dégagée

MAX / 14 MIN / 4

Lever 06:34 AM  Coucher 06:42 PM

lundi 24 septembre

Nuit partiellement dégagée

MAX / 14 MIN / 1

Lever 06:35 AM  Coucher 06:40 PM

Vent

OSO 6 km/h (3 kts)

Humidité

71%

Pression

102.3kPa

Température de l'eau

19.2C (66.5F)

FermerFermer

Accueil > Opérations > Opérations > Navires au port